User: anonymous   Login
Location: Unspecified
(45.3233°N, 0.0000°E)
Time: 01:31:32
(UTC+00:00)
Language:

Meteor 2-10 Rocket - Orbit

View from above orbital plane
View from above orbital plane
View from above satellite
View from above satellite

Ground track
Ground track

The orbit is defined by the following mean orbital elements,

1 14453U          26088.22313140 +.00000000 +00000-0 +49336-4 0 00009
2 14453  81.1630 118.8306 0104565 142.3527 218.5032 14.25443983    04
Epoch (UTC): 29 March 2026 05:21:18
Eccentricity: 0.0104565
inclination: 81.1630°
perigee height: 732 km
apogee height: 882 km
right ascension of ascending node: 118.8306°
argument of perigee: 142.3527°
revolutions per day: 14.25443983
mean anomaly at epoch: 218.5032°

The dashed part of the orbit path shows where the satellite is in the earth's shadow,  

DLR